{"data":{"norad_id":39155,"epoch":"2026-09-17T19:45:30.939264Z","epoch_age_seconds":245478,"freshness":"STALE","line1":"1 39155U 13019A   26260.82327476  .00000015  00000+0  00000+0 0  9996","line2":"2 39155  65.4768  70.4982 0023248 226.0562 133.7810  2.13103120104251","mean_motion":2.1310312,"eccentricity":0.0023248,"inclination_deg":65.4768,"raan_deg":70.4982,"arg_perigee_deg":226.0562,"mean_anomaly_deg":133.781,"bstar":0,"rev_number":10425,"period_min":675.72919626892,"perigee_km":19070.49720551,"apogee_km":19189.098900332,"semimajor_km":25507.935052921,"source":"CELESTRAK","updated_at":"2026-09-20T09:00:46.275881Z"}}